Weather in Vetreny

Russia / Magadan District     61°46′30″N   149°44′16″E
temp.,
°C
wind,
m/s
gust,
m/s
humid.,
%
clouds,
%
prec.,
mm/h
press.,
hPa
HPBL,
m
11 august, thu
thu1123:00+11se0193100 2.6 100549
02:00+11ese0192100 0.8 100437
05:00+11sse1192100 1.5 100423
08:00+11ssw1189100 0.1 1004104
11:00+11sw1290100 0.4 1004192
14:00+12ssw2286100 0.5 1004233
17:00+15w126655 1.4 1003766
20:00+14sw227425 1.1 100438
12 august, fri
fri1223:00+9s338910 1.2 100634
02:00+8s339051 0.0 100622
05:00+8s229143 0.0 100715
08:00+11sw128136 0.0 1007288
11:00+14sw226998 0.1 1007664
14:00+17wsw2253100 0.0 10061066
17:00+18w114423 0.1 10061399
20:00+17n115582 0.0 100713
13 august, sat
sat1323:00+15ese1158100 0.0 100811
02:00+14ene115999 0.0 100811
05:00+14ne116097 0.0 100811
08:00+16ne115235 0.0 1008229
11:00+19e1439100 0.0 10072151
14:00+19e2438100 0.0 10062029
17:00+16ssw4662100 0.1 1007275
20:00+13se1284100 0.8 100855
14 august, sun
sun1423:00+12ese118874 1.7 100926
02:00+10sse228814 0.1 101014
05:00+11s228793 0.2 101028
08:00+12ssw2380100 0.3 1011277
11:00+14wsw236627 0.6 1011912
14:00+15wsw446359 1.0 10111062
17:00+15wsw446163 1.6 10111129
20:00+12sw3473100 0.1 1012355
15 august, mon
mon1523:00+9ssw338860 0.1 101336
02:00+9sw229187 0.0 101323
05:00+9ssw228795 0.0 101348
08:00+11sw227832 0.0 1012327
11:00+14sw226229 0.0 1011947
14:00+16wsw225214 0.0 10091268
17:00+17w124649 0.1 10081623
20:00+16w115787 0.0 100811